COSMOS 2598

导读 | 豆包AI

COSMOS 2598是独联体(CIS)于2025年11月25日发射的“宇宙”系列卫星,延续了该系列以军用航天任务为主的传统。作为冷战后该系列最新发射的卫星之一,它继承了苏联-俄罗斯空间侦察、技术验证或航天监测的任务定位,依托成熟的“宇宙”平台技术,入轨后将服务于独联体空间态势感知,延续了该系列近七十年的军用航天发展脉络。

Basic Information
目录编号:
66648
目录名称:
COSMOS 2598
国际标识:
2025-273B
轨道中心:
EARTH
卫星名称:
COSMOS 2598
卫星全名:
COSMOS 2598
卫星状态:
在轨 (已飞行156 天)
发射日期:
2025-11-25 UTC
国别 :
俄罗斯(独联体) (CIS)
星等 :
--
Orbit Information
数据来源 国际轨道数据 AOE轨道数据
星历时间 2026-04-30T13:37:24+0800
10小时前
查看轨道信息
2026-04-28T23:00:00+0800
2天前
查看轨道信息
半长轴 7872.398km 7872.39km
偏心率 0.0009403 0.0008455
轨道倾角 82.506° 82.506°
近地点辐角 291.543° 290.008°
升交点赤经 200.346° 201.344°
平近点角 68.465° 72.671°
近地点 1486.858km 1487.596km
远地点 1501.664km 1500.91km
周期 115.856分钟 115.856分钟
每日圈数 12.429173 12.429193
Detailed Information
使用方式:
暂无
2D Orbit Map
3D Orbit Map
Orbit Altitude Analysis Chart
Orbit Inclination Analysis Chart
Orbit Comprehensive Analysis Chart
View Comprehensive Chart